• In Hungary
  • List of Countries
  • For 7 days
  • Water Temperature
  • Satellite Maps
  • Weather Map
  • News
  • Weather Widgets
  • user-avatar
    Login

    Hourly Weather Nizhnee Naschekino

    Today, 21 September, Friday

    Time Temperature Precipitation Wind Pressure Humidity
    00:00 +16°C° 0 mm 3 mps 748 mmHg 86%
    01:00 +14°C° 0 mm 3 mps 748 mmHg 88%
    02:00 +14°C° 0 mm 3 mps 749 mmHg 90%
    03:00 +13°C° 0 mm 3 mps 749 mmHg 92%
    04:00 +12°C° 0 mm 3 mps 749 mmHg 93%
    05:00 +13°C° 0 mm 2 mps 750 mmHg 93%
    06:00 +13°C° 0 mm 2 mps 750 mmHg 94%
    07:00 +14°C° 0 mm 2 mps 751 mmHg 87%
    08:00 +16°C° 0 mm 2 mps 751 mmHg 79%
    09:00 +17°C° 0 mm 2 mps 751 mmHg 72%
    10:00 +19°C° 0 mm 2 mps 751 mmHg 66%
    11:00 +20°C° 0 mm 3 mps 752 mmHg 60%
    12:00 +21°C° 0 mm 3 mps 752 mmHg 54%
    13:00 +22°C° 0 mm 3 mps 752 mmHg 53%
    14:00 +24°C° 0 mm 2 mps 752 mmHg 52%
    15:00 +24°C° 0 mm 2 mps 752 mmHg 51%
    16:00 +23°C° 0 mm 2 mps 752 mmHg 56%
    17:00 +22°C° 0 mm 1 mps 752 mmHg 61%
    18:00 +21°C° 0 mm 1 mps 752 mmHg 66%
    19:00 +20°C° 0 mm 1 mps 752 mmHg 69%
    20:00 +17°C° 0 mm 0 mps 752 mmHg 72%
    21:00 +17°C° 0 mm 0 mps 752 mmHg 74%
    22:00 +18°C° 0 mm 1 mps 752 mmHg 75%
    23:00 +18°C° 0 mm 1 mps 753 mmHg 77%

    Tomorrow, 22 September, Saturday

    Time Temperature Precipitation Wind Pressure Humidity
    00:00 +18°C° 0 mm 1 mps 753 mmHg 78%
    01:00 +16°C° 0 mm 1 mps 753 mmHg 80%
    02:00 +16°C° 0 mm 2 mps 753 mmHg 81%
    03:00 +15°C° 0 mm 2 mps 753 mmHg 83%
    04:00 +15°C° 0 mm 2 mps 753 mmHg 84%
    05:00 +15°C° 0 mm 2 mps 753 mmHg 85%
    06:00 +15°C° 0 mm 2 mps 753 mmHg 86%
    07:00 +16°C° 0 mm 2 mps 753 mmHg 80%
    08:00 +18°C° 0 mm 2 mps 753 mmHg 73%
    09:00 +19°C° 0 mm 3 mps 753 mmHg 67%
    10:00 +21°C° 0 mm 3 mps 753 mmHg 62%
    11:00 +22°C° 0 mm 3 mps 753 mmHg 57%
    12:00 +24°C° 0 mm 3 mps 753 mmHg 52%
    13:00 +25°C° 0 mm 3 mps 753 mmHg 51%
    14:00 +25°C° 0 mm 3 mps 752 mmHg 50%
    15:00 +25°C° 0 mm 3 mps 752 mmHg 49%
    16:00 +24°C° 0 mm 3 mps 752 mmHg 55%
    17:00 +22°C° 0 mm 3 mps 751 mmHg 60%
    18:00 +20°C° 0 mm 3 mps 751 mmHg 66%
    19:00 +19°C° 0 mm 3 mps 751 mmHg 68%
    20:00 +19°C° 0 mm 3 mps 751 mmHg 70%
    21:00 +18°C° 0 mm 3 mps 751 mmHg 71%
    22:00 +17°C° 0 mm 3 mps 751 mmHg 72%
    23:00 +17°C° 0 mm 3 mps 751 mmHg 72%

    Day after tomorrow, 23 September, Sunday

    Time Temperature Precipitation Wind Pressure Humidity
    00:00 +17°C° 0 mm 4 mps 750 mmHg 72%
    01:00 +17°C° 0 mm 4 mps 750 mmHg 72%
    02:00 +15°C° 0 mm 4 mps 750 mmHg 73%
    03:00 +15°C° 0 mm 4 mps 749 mmHg 73%
    04:00 +15°C° 0 mm 4 mps 749 mmHg 73%
    05:00 +15°C° 0 mm 4 mps 749 mmHg 73%
    06:00 +14°C° 0 mm 5 mps 748 mmHg 73%
    07:00 +16°C° 0 mm 5 mps 748 mmHg 68%
    08:00 +17°C° 0 mm 6 mps 747 mmHg 64%
    09:00 +19°C° 0 mm 6 mps 747 mmHg 59%
    10:00 +21°C° 0 mm 7 mps 746 mmHg 54%
    11:00 +22°C° 0 mm 8 mps 746 mmHg 50%
    12:00 +24°C° 0 mm 8 mps 745 mmHg 46%
    13:00 +24°C° 0 mm 8 mps 745 mmHg 45%
    14:00 +24°C° 0 mm 8 mps 744 mmHg 44%
    15:00 +26°C° 0 mm 8 mps 743 mmHg 43%
    16:00 +24°C° 0.3 mm 7 mps 743 mmHg 49%
    17:00 +22°C° 0.3 mm 7 mps 743 mmHg 54%
    18:00 +21°C° 0.3 mm 6 mps 742 mmHg 60%
    19:00 +20°C° 1.4 mm 6 mps 742 mmHg 66%
    20:00 +17°C° 1.4 mm 5 mps 742 mmHg 73%
    21:00 +16°C° 1.4 mm 5 mps 743 mmHg 79%
    22:00 +14°C° 2.5 mm 5 mps 743 mmHg 82%
    23:00 +11°C° 2.5 mm 6 mps 742 mmHg 84%

    24 September, Monday

    Time Temperature Precipitation Wind Pressure Humidity
    00:00 +10°C° 2.5 mm 6 mps 742 mmHg 87%
    01:00 +9°C° 2.1 mm 6 mps 743 mmHg 87%
    02:00 +9°C° 2.1 mm 6 mps 743 mmHg 87%
    03:00 +9°C° 2.1 mm 5 mps 743 mmHg 87%
    04:00 +9°C° 0.5 mm 5 mps 743 mmHg 86%
    05:00 +9°C° 0.5 mm 5 mps 743 mmHg 86%
    06:00 +9°C° 0.5 mm 5 mps 743 mmHg 85%
    07:00 +9°C° 0 mm 5 mps 744 mmHg 83%
    08:00 +10°C° 0 mm 6 mps 744 mmHg 80%
    09:00 +10°C° 0 mm 6 mps 745 mmHg 78%
    10:00 +12°C° 0 mm 5 mps 745 mmHg 72%
    11:00 +14°C° 0 mm 5 mps 745 mmHg 66%
    12:00 +15°C° 0 mm 5 mps 745 mmHg 60%
    13:00 +15°C° 0 mm 4 mps 746 mmHg 58%
    14:00 +17°C° 0 mm 4 mps 746 mmHg 56%
    15:00 +17°C° 0 mm 4 mps 746 mmHg 54%
    16:00 +16°C° 0 mm 3 mps 746 mmHg 58%
    17:00 +15°C° 0 mm 2 mps 746 mmHg 63%
    18:00 +14°C° 0 mm 1 mps 746 mmHg 67%
    19:00 +13°C° 0 mm 1 mps 746 mmHg 68%
    20:00 +13°C° 0 mm 1 mps 746 mmHg 70%
    21:00 +12°C° 0 mm 1 mps 746 mmHg 71%
    22:00 +12°C° 0 mm 1 mps 745 mmHg 72%
    23:00 +12°C° 0 mm 1 mps 745 mmHg 73%

    25 September, Tuesday

    Time Temperature Precipitation Wind Pressure Humidity
    00:00 +10°C° 0 mm 2 mps 745 mmHg 73%
    01:00 +10°C° 0 mm 2 mps 744 mmHg 74%
    02:00 +10°C° 0 mm 3 mps 744 mmHg 75%
    03:00 +10°C° 0 mm 3 mps 744 mmHg 76%
    04:00 +10°C° 0.1 mm 4 mps 743 mmHg 75%
    05:00 +9°C° 0.1 mm 5 mps 743 mmHg 73%
    06:00 +9°C° 0.1 mm 5 mps 742 mmHg 72%
    07:00 +9°C° 0.5 mm 6 mps 742 mmHg 74%
    08:00 +9°C° 0.5 mm 7 mps 741 mmHg 76%
    09:00 +9°C° 0.5 mm 7 mps 741 mmHg 78%
    10:00 +10°C° 0.2 mm 7 mps 740 mmHg 77%
    11:00 +10°C° 0.2 mm 8 mps 740 mmHg 76%
    12:00 +11°C° 0.2 mm 8 mps 740 mmHg 75%
    13:00 +11°C° 1 mm 8 mps 739 mmHg 77%
    14:00 +11°C° 1 mm 8 mps 739 mmHg 79%
    15:00 +11°C° 1 mm 7 mps 739 mmHg 81%
    16:00 +10°C° 1 mm 7 mps 739 mmHg 82%
    17:00 +10°C° 1 mm 6 mps 739 mmHg 83%
    18:00 +10°C° 1 mm 6 mps 738 mmHg 83%
    19:00 +10°C° 0.1 mm 6 mps 738 mmHg 83%
    20:00 +9°C° 0.1 mm 6 mps 738 mmHg 82%
    21:00 +9°C° 0.1 mm 6 mps 738 mmHg 81%
    22:00 +8°C° 0 mm 6 mps 738 mmHg 80%
    23:00 +8°C° 0 mm 6 mps 738 mmHg 79%

    26 September, Wednesday

    Time Temperature Precipitation Wind Pressure Humidity
    00:00 +7°C° 0 mm 6 mps 738 mmHg 78%
    01:00 +6°C° 0 mm 7 mps 738 mmHg 78%
    02:00 +6°C° 0 mm 7 mps 738 mmHg 78%
    03:00 +6°C° 0 mm 7 mps 738 mmHg 78%
    04:00 +6°C° 0 mm 7 mps 738 mmHg 78%
    05:00 +6°C° 0 mm 8 mps 738 mmHg 77%
    06:00 +6°C° 0 mm 8 mps 739 mmHg 77%
    07:00 +6°C° 0.1 mm 8 mps 739 mmHg 77%
    08:00 +6°C° 0.1 mm 8 mps 740 mmHg 77%
    09:00 +6°C° 0.1 mm 8 mps 740 mmHg 78%
    10:00 +6°C° 0.1 mm 8 mps 741 mmHg 76%
    11:00 +7°C° 0.1 mm 8 mps 742 mmHg 75%
    12:00 +7°C° 0.1 mm 8 mps 743 mmHg 73%
    13:00 +8°C° 0 mm 7 mps 744 mmHg 72%
    14:00 +8°C° 0 mm 7 mps 745 mmHg 72%
    15:00 +8°C° 0 mm 6 mps 746 mmHg 71%
    16:00 +7°C° 0 mm 6 mps 746 mmHg 71%
    17:00 +7°C° 0 mm 6 mps 747 mmHg 71%
    18:00 +7°C° 0 mm 5 mps 748 mmHg 71%
    19:00 +7°C° 0 mm 5 mps 748 mmHg 72%
    20:00 +6°C° 0 mm 4 mps 749 mmHg 74%
    21:00 +6°C° 0 mm 4 mps 749 mmHg 75%
    22:00 +5°C° 0 mm 4 mps 750 mmHg 77%
    23:00 +5°C° 0 mm 4 mps 750 mmHg 79%
    Show more